Regional Weather Roundup
Issued by NWS

Home | Current Version | Previous Version | Graphics & Text | Print | Product List | Glossary On
Versions: 1 2 3 4 5 6 7 8 9 10 11 12 13 14 15 16 17 18 19 20 21 22 23 24 25 26 27 28 29 30 31 32 33 34 35 36 37 38 39 40 41 42 43 44 45 46 47 48 49 50
000
ASUS43 KIND 231909
RWRIN

WEATHER ROUNDUP FOR INDIANA
NATIONAL WEATHER SERVICE INDIANAPOLIS IN
300 PM EDT THU OCT 23 2014

NOTE: "FAIR" INDICATES FEW OR NO CLOUDS BELOW 12,000 FEET WITH NO
SIGNIFICANT WEATHER AND/OR OBSTRUCTIONS TO VISIBILITY.

* - STATION DOES NOT REPORT WEATHER SUCH AS PRECIPITATION OR FOG.

+ - STATION NOT QUALITY CONTROLLED BY THE NATIONAL WEATHER SERVICE.
    USE DATA WITH CAUTION...ESPECIALLY DEWPOINT AND RELATIVE
    HUMIDITY OBSERVATIONS.

INZ001>003-010>013-019-020-232000-
NORTHWEST INDIANA

CITY           SKY/WX    TMP DP  RH WIND       PRES   REMARKS
GARY /AIRPORT/ MOSUNNY   61  41  48 S6        30.14F
KNOX *+        SUNNY     58  40  49 S6        30.16F
LA PORTE +     SUNNY     59  42  53 S6        30.16F
MICHIGAN CITY+ SUNNY     57  37  47 CALM      30.15F
MONTICELLO +   HAZE      57  42  59 CALM      30.16F VSB 1
RENSSELAER +   MOSUNNY   59  41  51 S6        30.16F
VALPARAISO     SUNNY     58  40  51 SW6       30.15F

$$

LMZ046-743>745-232000-
SOUTHERN LAKE MICHIGAN

STATION/POSITION TIME  TEMP WIND        PRES
                       AIR  DIR/SP/G
                 (UTC) (F)  (DEG/KT/KT) (MB)
MICHIGAN CITY    1900   57  310/  3/  5   N/A

$$

INZ004-005-014>016-021>024-232000-
NORTH CENTRAL INDIANA

CITY           SKY/WX    TMP DP  RH WIND       PRES   REMARKS
ELKHART        SUNNY     57  39  51 SW5       30.17F
GOSHEN         SUNNY     57  42  57 SW6       30.17F
LOGANSPORT +   SUNNY     55  39  54 SW6       30.17F
PERU/GRISSOM   SUNNY     57  44  62 SW5       30.16F
ROCHESTER +    SUNNY     61  41  48 SW3       30.17F
SOUTH BEND     SUNNY     58  39  49 W8        30.18F
WARSAW +       SUNNY     55  39  54 S7        30.17F

$$

INZ006>009-017-018-025>027-232000-
NORTHEAST INDIANA

CITY           SKY/WX    TMP DP  RH WIND       PRES   REMARKS
ANGOLA *+        N/A     57  39  51 SW12      30.16F
AUBURN +       SUNNY     57  37  47 SW5       30.17F
FORT WAYNE     MOSUNNY   57  39  51 CALM      30.18F
HUNTINGTON +   SUNNY     57  41  54 W3        30.17F

$$

INZ028-029-035-036-043>045-051>053-232000-
WEST CENTRAL INDIANA

CITY           SKY/WX    TMP DP  RH WIND       PRES   REMARKS
GREENCASTLE +  CLOUDY    55  41  58 S6        30.18F
LAFAYETTE      PTSUNNY   56  39  53 W5        30.17F
TERRE HAUTE    PTSUNNY   58  42  55 W6        30.18F

$$

INZ030>032-037>040-046>048-054>057-064-065-232000-
CENTRAL INDIANA

CITY           SKY/WX    TMP DP  RH WIND       PRES   REMARKS
CP ATTERBURY + SUNNY     59  41  51 CALM      30.18F
COLUMBUS       SUNNY     57  37  47 CALM      30.18F
FRANKFORT +    MOSUNNY   58  41  54 CALM      30.19F
GREENWOOD *+   SUNNY     59  36  41 CALM      30.18F
INDIANAPOLIS   PTSUNNY   56  38  50 S3        30.17F
-EAGLE CREEK   MOSUNNY   57  39  51 W3        30.17F
KOKOMO *+      SUNNY     59  39  47 W7        30.17F
MARION +       SUNNY     57  37  46 CALM      30.18F
MT COMFORT *+  SUNNY     57  28  33 CALM      30.18F
SHELBYVILLE    SUNNY     59  40  49 CALM      30.17F
ZIONSVILLE +   MOSUNNY   58  38  48 CALM      30.18F

$$

INZ033-034-041-042-049-050-058-059-232000-
EAST CENTRAL INDIANA

CITY           SKY/WX    TMP DP  RH WIND       PRES   REMARKS
MUNCIE         SUNNY     58  40  51 CALM      30.18F

$$

INZ060-061-067>069-081>083-085>088-232000-
SOUTHWEST INDIANA

CITY           SKY/WX    TMP DP  RH WIND       PRES   REMARKS
EVANSVILLE     PTSUNNY   60  42  51 SE3       30.17F
HUNTINGBURG *+ MOSUNNY   61  45  55 CALM      30.17F
WASHINGTON +   PTSUNNY   60  42  51 CALM      30.16F

$$

INZ062-063-066-070>080-084-089>092-232000-
SOUTH CENTRAL AND SOUTHEAST INDIANA

CITY           SKY/WX    TMP DP  RH WIND       PRES   REMARKS
BLOOMINGTON    PTSUNNY   58  42  55 E3        30.17F
NORTH VERNON + SUNNY     59  39  47 CALM      30.17F

$$




USA.gov is the U.S. government's official web portal to all federal, state and local government web resources and services.